FENGYUN 1C DEB, 30193

Orbit data source: Space-Track

FENGYUN 1C DEB, 30193 is space debris in SSO originally from a launch on Mon, 10 May 1999 UTC launched from the Taiyaun Space Center, China (TSC). Fengyun 1C debris stems from the Chinese weather satellite Fengyun-1C, which was intentionally destroyed by a Chinese anti-satellite missile in 2007. This event dramatically increased the amount of space debris, with thousands of trackable fragments posing hazards to satellites and human spaceflight. The Fengyun 1C debris cloud has become a focal point in discussions about space sustainability and the need for international regulations to prevent the creation of new debris.

Loading next visibility...
Identifier
30193, 1999-025VA
Orbit
SSO
Country
Flag of CNCN / PRC
Related business
Manufacturer
Unknown
Mission
Spacecraft
Bus & Motor
Unknown
Mass
Unknown
Launch date (UTC)
1999-05-10 (26 years ago)
Launch vehicle
Unknown
Launch site
Taiyaun Space Center, China (TSC)
Object type
Payload
Rocket body
Debris
Shape & HBR
Unknown shape, 0.1 m
Radar Cross Section
Small (<0.1 m²)

Expand to show TLE details & history
Last TLE update: 1 day ago

TLE from 1 day ago
0 FENGYUN 1C DEB
1 30193U 99025VA  25304.72468088  .00004393  00000-0  10975-2 0  9991
2 30193  98.7533 211.3670 0105651 260.4718 125.3751 14.48761577985588
Epoch: 2025-10-31T17:23Z
TLE epoch observation values (Epoch: 2025-10-31T17:23:32.428Z)
Latitude
26.52616°
Longitude
-94.16752°
Altitude
776.958 km
Speed
7.445 km/s
True Right ascension
13h 47m 55s
True Declination
26° 23' 22"
Sunlit
Object was in daylight at epoch
Visualization orbit readout
Latitude
Unknown
Longitude
Unknown
Altitude
Unknown
Speed
Unknown
Apparent Right ascension
Unknown
Apparent Declination
Unknown
Sunlit
N/A
Visualization observer readout
Local Sidereal Time
13:29:30
Azimuth
Unknown
Elevation
Unknown
Doppler factor
Unknown
Orbital elements
Apogee altitude
801.883 km
Perigee altitude
651.754 km
Semi-major axis
7,104.955 km
Eccentricity
0.01057
Inclination
98.7533°
RAAN
211.367°
Arg. of periapsis
260.4718°
True anomaly
126.35472°
Mean anomaly
125.3751°
Eccentric anomaly
125.86566°
Mean motion
3.62411 °/min
Orbital period
99.33 mins
BSTAR
0.0010975
Loading maneuver chart data...
Computing Atmospheric mass density...

Documentation

Showing up to 5 results
|